Tracking 22879 objects as of 21-Apr-2021
HD Live streaming from Space Station
objects crossing your sky now

STARLINK-2161

Track STARLINK-2161 now!
10-day predictions
STARLINK-2161 is classified as:


NORAD ID: 47747
Int'l Code: 2021-017AB
Perigee: 356.1 km
Apogee: 357.7 km
Inclination: 53.0 °
Period: 91.5 minutes
Semi major axis: 6727 km
RCS: Unknown
Launch date: March 4, 2021
Source: United States (US)
Launch site: AIR FORCE EASTERN TEST RANGE (AFETR)
aabbcc
Your satellite tracking list
Your tracking list is empty




NASA's NSSDC Master Catalog

Two Line Element Set (TLE):
1 47747U 21017AB  21110.91667824 -.00001102  00000-0 -34302-5 0  9991
2 47747  53.0475 307.5173 0001198  65.6009  50.7651 15.73213425  8124
Source of the keplerian elements: AFSPC